FLOCK 2K-09 (42896 NORAD) Tracking and Keplerian Element Data

This shows tracking and keplerian element data for the satellite.

Feedback or suggestion? Click here.




ElementValue
Catalog42896
NameFLOCK 2K-09
Epoch Orbit3308
Epoch Day46.18918566
Epoch Year2018
RAAN309.0479
Inclination96.9933
Eccentricity0.0012695
Argument of Perigee171.3957
Mean Anonmoly188.7508
Mean Motion15.35617248
Decay Rate8.195E-05
L11 42896U 17042BZ 18046.18918566 .00008195 00000-0 23821-3 0 9998
L22 42896 96.9933 309.0479 0012695 171.3957 188.7508 15.35617248 33081

Live tracking and technical data element details for FLOCK 2K-09 (NORAD 42896). FLOCK 2K-09 can be tracked NOW for your location showing map with azimuth and elevation plus other details from your city location.

Track the satellite on the map from your city or location and see movement details for azimuth, elevation, latitude, longitude, range, height, and movement on the map or in text.







IsCatalogInMostPopularTable: catalog: 42896, numindb: 139
Update: records affected: 1



GetName: 42896 FLOCK 2K-09

Hit Count: updated at: Fri, 16 Nov 2018 09:13:14 GMT